Location: Barrio Las Umbrías
(40.4173°N, 4.8685°W)
Time: 12:11:39
(UTC+00:00)

Cosmos 1441 Rocket - Pass Details

Date: 17 August 2022
Orbit: 491 x 533 km, 81.1° (Epoch: 27 September)

Event Time Altitude Azimuth Distance (km) Brightness Sun altitude
Rises 20:59:03 0° 360° (N) 2,593 7.3 -18.5°
Reaches altitude 10° 21:01:21 10° 10° (N) 1,700 6.2 -18.8°
Enters shadow 21:04:20 32° 61° (ENE) 872 4.1 -19.3°
